This is the latest recevied weather packets stored in our database for station/object JF2ZGN-13. If no packets are shown the sender has not sent any weather packets the latest 10 day(s).
| Time | Temp. | Humidity | Pressure | Rain* | Wind** | Luminosity | Snow |
|---|---|---|---|---|---|---|---|
| 1777797275 | 11.67° C | 83% | 901.5 hPa | 0 mm | - | - | - |
| 1777796674 | 11.67° C | 81% | 901.7 hPa | 0 mm | - | - | - |
| 1777796076 | 11.67° C | 79% | 902 hPa | 0 mm | - | - | - |
| 1777795474 | 11.67° C | 78% | 902.2 hPa | 0 mm | - | - | - |
| 1777794873 | 11.67° C | 71% | 902.2 hPa | 0 mm | - | - | - |
| 1777794272 | 12.22° C | 76% | 902.4 hPa | 0 mm | - | - | - |
| 1777793672 | 12.22° C | 72% | 902.3 hPa | 0 mm | - | - | - |
| 1777793071 | 12.78° C | 67% | 902.5 hPa | 0 mm | - | - | - |
| 1777792471 | 12.22° C | 69% | 902.9 hPa | 0 mm | - | - | - |
| 1777791870 | 12.78° C | 71% | 902.9 hPa | 0 mm | - | - | - |
| 1777791270 | 13.33° C | 58% | 903.1 hPa | 0 mm | - | - | - |
| 1777790670 | 13.89° C | 59% | 903.2 hPa | 0 mm | - | - | - |
| 1777790068 | 13.89° C | 57% | 903.3 hPa | 0 mm | - | - | - |
| 1777789468 | 15° C | 42% | 903.5 hPa | 0 mm | - | - | - |
| 1777788867 | 15.56° C | 51% | 903.5 hPa | 0 mm | - | - | - |
| 1777788267 | 15.56° C | 49% | 903.5 hPa | 0 mm | - | - | - |
| 1777787668 | 15.56° C | 49% | 903.6 hPa | 0 mm | - | - | - |
| 1777787066 | 15.56° C | 40% | 903.9 hPa | 0 mm | - | - | - |
| 1777786465 | 15.56° C | 52% | 904.1 hPa | 0 mm | - | - | - |
| 1777785865 | 14.44° C | 50% | 904.1 hPa | 0 mm | - | - | - |
| 1777785265 | 15° C | 49% | 904.3 hPa | 0 mm | - | - | - |
| 1777784665 | 15.56° C | 47% | 904.5 hPa | 0 mm | - | - | - |
| 1777784064 | 15° C | 57% | 904.8 hPa | 0 mm | - | - | - |
| 1777783463 | 14.44° C | 60% | 904.5 hPa | 0 mm | - | - | - |
| 1777782863 | 15.56° C | 49% | 904.7 hPa | 0 mm | - | - | - |
* Rain since midnight (hover to see other rain measurements)
** Current wind speed in m/s (hover to see current wind gust speed)